This demonstration page uses our WeatherBlox Daily Observations layout. Learn more.

Hourly Observations for July 28, 2018

Temp ( °F °C ) Dew Point ( °F °C ) Humidity (%) Winds ( mph kmh ) Pressure ( in mb ) Visibility ( mi km ) Precip ( " mm )
12:15 am 00:15 Mostly Cloudy 65 18.5 64 17.7 95 95 ESE 5 7 30.06 1018 10 16.0934 0 0
12:35 am 00:35 Partly Cloudy 64 18 64 17.7 98 98 Calm 30.06 1018 10 16.0934 0 0
12:55 am 00:55 Clear 64 17.8 64 17.5 98 98 E 5 7 30.06 1018 10 16.0934 0 0
1:15 am 01:15 Clear 64 17.6 63 17.4 99 99 E 3 6 30.06 1018 10 16.0934 0 0
1:35 am 01:35 Clear 63 17.3 63 17.1 99 99 Calm 30.06 1018 10 16.0934 0 0
1:55 am 01:55 Clear 63 17.2 63 17.2 100 100 NNE 6 9 30.06 1018 10 16.0934 0 0
2:15 am 02:15 Partly Cloudy 64 17.5 64 17.5 100 100 NE 8 13 30.06 1018 7 11.26538 0 0
2:35 am 02:35 Partly Cloudy with Mist and Fog 64 17.8 64 17.8 100 100 NE 6 9 30.06 1018 5 8.0467 0 0
2:55 am 02:55 Partly Cloudy with Mist and Fog 64 17.8 64 17.8 100 100 ENE 6 9 30.06 1018 5 8.0467 0 0
3:15 am 03:15 Clear with Mist and Fog 64 17.8 64 17.8 100 100 NE 5 7 30.06 1018 5 8.0467 0 0
3:35 am 03:35 Clear with Mist and Fog 64 17.5 64 17.5 100 100 NE 5 7 30.06 1018 5 8.0467 0 0
3:55 am 03:55 Clear with Mist and Fog 63 17.2 63 17.2 100 100 NE 3 6 30.06 1018 5 8.0467 0 0
4:15 am 04:15 Partly Cloudy 63 17.1 63 17.1 100 100 ENE 3 6 30.09 1019 7 11.26538 0 0
4:35 am 04:35 Partly Cloudy 63 17 63 17 100 100 NNE 5 7 30.09 1019 7 11.26538 0 0
4:55 am 04:55 Partly Cloudy with Mist and Fog 62 16.7 62 16.7 100 100 NE 5 7 30.09 1019 5 8.0467 0 0
5:15 am 05:15 Clear with Mist and Fog 62 16.5 62 16.5 100 100 E 3 6 30.06 1018 5 8.0467 0 0
5:35 am 05:35 Clear with Mist and Fog 62 16.5 62 16.5 100 100 Calm 30.09 1019 5 8.0467 0 0
5:55 am 05:55 Clear 62 16.7 62 16.7 100 100 SE 5 7 30.06 1018 7 11.26538 0 0
6:15 am 06:15 Clear 62 16.8 62 16.8 100 100 ESE 6 9 30.06 1018 7 11.26538 0 0
6:35 am 06:35 Partly Cloudy 62 16.7 62 16.7 100 100 E 3 6 30.09 1019 7 11.26538 0 0
6:55 am 06:55 Mostly Cloudy with Mist and Fog 62 16.8 62 16.8 100 100 ESE 5 7 30.09 1019 5 8.0467 0 0
7:15 am 07:15 Mostly Cloudy 63 17 63 17 100 100 N 3 6 30.09 1019 7 11.26538 0 0
7:35 am 07:35 Cloudy with Mist and Fog 63 17 63 17 100 100 N 3 6 30.09 1019 5 8.0467 0 0
7:55 am 07:55 Cloudy with Mist and Fog 63 17 63 17 100 100 Calm 30.09 1019 5 8.0467 0 0
8:15 am 08:15 Cloudy 63 17.1 63 17.1 100 100 ESE 6 9 30.09 1019 7 11.26538 0 0
8:35 am 08:35 Mostly Cloudy 64 17.5 63 17.2 98 98 SE 7 11 30.06 1018 10 16.0934 0 0
8:55 am 08:55 Mostly Cloudy 64 17.7 63 17.2 97 97 SSE 7 11 30.06 1018 10 16.0934 0 0
9:15 am 09:15 Cloudy 64 18 63 17.1 95 95 SE 8 13 30.06 1018 10 16.0934 0 0
9:35 am 09:35 Cloudy 65 18.4 63 17.4 94 94 ESE 5 7 30.06 1018 10 16.0934 0 0
9:55 am 09:55 Mostly Cloudy 66 18.9 64 17.6 92 92 NE 6 9 30.06 1018 10 16.0934 0.01 0.254
10:15 am 10:15 Cloudy 66 19 64 17.6 92 92 NNE 9 15 30.06 1018 10 16.0934 0 0
10:35 am 10:35 Cloudy 67 19.2 64 17.9 92 92 NE 8 13 30.06 1018 10 16.0934 0 0
10:55 am 10:55 Cloudy 67 19.6 64 17.9 90 90 NE 7 11 30.06 1018 10 16.0934 0 0
11:15 am 11:15 Cloudy 68 20.2 65 18.2 88 88 NE 6 9 30.06 1018 10 16.0934 0 0
11:35 am 11:35 Cloudy 69 20.6 65 18.2 86 86 NNE 3 6 30.06 1018 10 16.0934 0 0
11:55 am 11:55 Cloudy 69 20.5 65 18.3 87 87 NNE 6 9 30.06 1018 10 16.0934 0 0
12:15 pm 12:15 Cloudy 69 20.7 65 18.1 85 85 NE 6 9 30.03 1017 10 16.0934 0 0
12:35 pm 12:35 Cloudy 69 20.8 65 18.2 85 85 ENE 5 7 30.03 1017 10 16.0934 0 0
12:55 pm 12:55 Cloudy 70 21 65 18.1 84 84 NE 3 6 30.03 1017 10 16.0934 0 0
1:15 pm 13:15 Cloudy 70 21 65 18.2 84 84 NNE 6 9 30.03 1017 10 16.0934 0 0
1:35 pm 13:35 Cloudy 71 21.5 65 18.4 83 83 NNE 5 7 30.03 1017 10 16.0934 0 0
1:55 pm 13:55 Cloudy 71 21.5 65 18.1 81 81 Calm 30.03 1017 10 16.0934 0 0
2:15 pm 14:15 Cloudy 72 22.2 65 18.4 79 79 Calm 30.03 1017 10 16.0934 0 0
2:35 pm 14:35 Cloudy 73 22.5 65 18.6 79 79 ENE 6 9 30.03 1017 10 16.0934 0 0
2:55 pm 14:55 Mostly Cloudy 73 22.9 65 18.4 76 76 NE 3 6 30.03 1017 10 16.0934 0 0
3:15 pm 15:15 Mostly Cloudy 73 23 65 18.4 75 75 NE 5 7 30.03 1017 10 16.0934 0 0
3:35 pm 15:35 Mostly Cloudy 74 23.5 66 18.8 75 75 E 7 11 30.03 1017 10 16.0934 0 0
3:55 pm 15:55 Mostly Cloudy 75 23.7 65 18.5 73 73 NE 5 7 30.03 1017 10 16.0934 0 0
4:15 pm 16:15 Mostly Cloudy 75 23.9 66 18.8 73 73 E 7 11 30 1016 10 16.0934 0 0
4:35 pm 16:35 Partly Cloudy 75 24.1 66 19 73 73 E 5 7 29.97 1015 10 16.0934 0 0
4:55 pm 16:55 Mostly Cloudy 75 23.9 66 19.1 75 75 NNE 8 13 30 1016 10 16.0934 0 0
5:15 pm 17:15 Partly Cloudy 75 24.1 67 19.4 75 75 ENE 7 11 29.97 1015 10 16.0934 0 0
5:35 pm 17:35 Partly Cloudy 76 24.3 67 19.4 74 74 ENE 8 13 29.97 1015 10 16.0934 0 0
5:55 pm 17:55 Partly Cloudy 75 24 66 19.1 74 74 NE 7 11 29.97 1015 10 16.0934 0 0
6:15 pm 18:15 Partly Cloudy 75 24 67 19.3 75 75 NNE 7 11 29.97 1015 10 16.0934 0 0
6:35 pm 18:35 Partly Cloudy 75 23.7 67 19.2 76 76 ENE 7 11 29.94 1014 10 16.0934 0 0
6:55 pm 18:55 Partly Cloudy 74 23.4 67 19.3 78 78 NE 7 11 29.97 1015 10 16.0934 0 0
7:15 pm 19:15 Sunny 74 23.3 67 19.5 79 79 ENE 8 13 30 1016 10 16.0934 0 0
7:35 pm 19:35 Sunny 73 22.8 67 19.7 83 83 ENE 5 7 30 1016 10 16.0934 0 0
7:55 pm 19:55 Sunny 73 22.5 67 19.7 84 84 ENE 3 6 30 1016 10 16.0934 0 0
8:15 pm 20:15 Sunny 71 21.8 68 20.1 90 90 NE 3 6 30 1016 10 16.0934 0 0
8:35 pm 20:35 Mostly Cloudy 71 21.4 69 20.3 93 93 NE 3 6 30 1016 10 16.0934 0 0
8:55 pm 20:55 Partly Cloudy 69 20.8 68 20 95 95 NE 8 13 29.97 1015 10 16.0934 0 0
9:15 pm 21:15 Mostly Cloudy 69 20.8 68 20 95 95 NE 7 11 30 1016 10 16.0934 0 0
9:35 pm 21:35 Mostly Cloudy 70 20.9 68 20 95 95 NNE 9 15 30 1016 10 16.0934 0 0
9:55 pm 21:55 Cloudy 71 21.5 67 19.7 90 90 NE 12 19 30.03 1017 10 16.0934 0 0
10:15 pm 22:15 Mostly Cloudy 69 20.8 67 19.7 93 93 NE 15 24 30.03 1017 10 16.0934 0 0
10:35 pm 22:35 Mostly Cloudy with Light Rain 69 20.5 67 19.7 95 95 NE 9 15 30.06 1018 10 16.0934 0 0
10:55 pm 22:55 Mostly Cloudy with Light Rain 68 20 67 19.5 97 97 E 13 20 30.06 1018 10 16.0934 0 0
11:15 pm 23:15 Mostly Cloudy 67 19.7 67 19.5 99 99 E 12 19 30.06 1018 10 16.0934 0 0
11:35 pm 23:35 Cloudy 67 19.5 67 19.3 99 99 ESE 13 20 30.06 1018 10 16.0934 0.01 0.254
11:55 pm 23:55 Cloudy 67 19.3 67 19.2 99 99 SE 14 22 30.03 1017 7 11.26538 0.02 0.508

Powered by AerisWeather